weather.gov     
National Weather Service

Regional Weather Roundup
NWS Homepage
This page is being discontinued on March 12, 2014.
The same data is available at this site. Please update your bookmarks.
Thank you, and we apologize for the inconvenience.
Please send an email to SR-SRH.Webmaster@noaa.gov with any concerns.


Current Version
Previous Version:    01  02  03  04  05  06  07  08  09  10  11  12  13  14  15  16  17  18  19  20  21  22  23  24  25  26  27  28  29  30  
   31  32  33  34  35  36  37  38  39  40  41  42  43  44  45  46  47  48  49  50  51  52  53  54  
[Printable]
234
ASUS43 KIND 311759
RWRIN

WEATHER ROUNDUP FOR INDIANA
NATIONAL WEATHER SERVICE INDIANAPOLIS IN
200 PM EDT FRI OCT 31 2014

NOTE: "FAIR" INDICATES FEW OR NO CLOUDS BELOW 12,000 FEET WITH NO
SIGNIFICANT WEATHER AND/OR OBSTRUCTIONS TO VISIBILITY.

* - STATION DOES NOT REPORT WEATHER SUCH AS PRECIPITATION OR FOG.

+ - STATION NOT QUALITY CONTROLLED BY THE NATIONAL WEATHER SERVICE.
    USE DATA WITH CAUTION...ESPECIALLY DEWPOINT AND RELATIVE
    HUMIDITY OBSERVATIONS.

INZ001>003-010>013-019-020-311900-
NORTHWEST INDIANA

CITY           SKY/WX    TMP DP  RH WIND       PRES   REMARKS
KNOX *+        CLOUDY    39  36  88 N28       29.97F
MONTICELLO +   RAIN      37  34  88 NW29G39   30.02S
VALPARAISO     RAIN      37  36  93 N15G30    30.02F FOG

$$

LMZ046-743>745-311900-
SOUTHERN LAKE MICHIGAN

STATION/POSITION TIME  TEMP WIND        PRES
                       AIR  DIR/SP/G
                 (UTC) (F)  (DEG/KT/KT) (MB)
MICHIGAN CITY    1700   41  340/ 46/ 53   N/A

$$

INZ004-005-014>016-021>024-311900-
NORTH CENTRAL INDIANA

CITY           SKY/WX    TMP DP  RH WIND       PRES   REMARKS
ELKHART        LGT RAIN  39  36  87 N12G20    29.95
GOSHEN         LGT RAIN  44  36  73 N12       29.92S
6HR MIN TEMP:  38; 6HR MAX TEMP:  44; 6HR PCP:  0.08;

PERU/GRISSOM   LGT RAIN  37  37 100 W20G25    29.96F
SOUTH BEND     CLOUDY    40  38  93 N18G30    29.98R
6HR MIN TEMP:  37; 6HR MAX TEMP:  43; 6HR PCP:  0.29;

WARSAW +       CLOUDY    41  36  81 NW9       29.92F

$$

INZ006>009-017-018-025>027-311900-
NORTHEAST INDIANA

CITY           SKY/WX    TMP DP  RH WIND       PRES   REMARKS
ANGOLA *+        N/A     43  28  56 N8        29.90S
AUBURN +       CLOUDY    43  34  70 NW6       29.91S
FORT WAYNE     PTSUNNY   43  36  76 NW8       29.92F
6HR MIN TEMP:  39; 6HR MAX TEMP:  43; 6HR PCP:  0.08;


$$

INZ028-029-035-036-043>045-051>053-311900-
WEST CENTRAL INDIANA

CITY           SKY/WX    TMP DP  RH WIND       PRES   REMARKS
GREENCASTLE +  CLOUDY    39  32  75 NW17G24   30.06S
LAFAYETTE      PTSUNNY   41  29  62 NW21G32   30.04F
6HR MIN TEMP:  36; 6HR MAX TEMP:  41; 6HR PCP:  0.02;

TERRE HAUTE    CLOUDY    41  30  65 NW21G31   30.09F
6HR MIN TEMP:  39; 6HR MAX TEMP:  45; 6HR PCP:  0.01;


$$

INZ030>032-037>040-046>048-054>057-064-065-311900-
CENTRAL INDIANA

CITY           SKY/WX    TMP DP  RH WIND       PRES   REMARKS
ANDERSON       LGT RAIN  39  34  81 NW17G29   29.96F
CP ATTERBURY + DRIZZLE   39  36  87 NW13G18   30.01S
COLUMBUS       CLOUDY    39  37  93 NW15G25   30.00F
FRANKFORT +    CLOUDY    37  37 100 W15G22    30.03F
INDIANAPOLIS   PTSUNNY   40  32  73 NW16G25   30.01S
6HR MIN TEMP:  38; 6HR MAX TEMP:  45; 6HR PCP:  0.06;

-EAGLE CREEK   LGT RAIN  40  34  79 NW22G28   30.01F
6HR MIN TEMP:  39; 6HR MAX TEMP:  46; 6HR PCP:  0.09;

KOKOMO *+      CLOUDY    37  34  87 NW18      29.98F
MT COMFORT *+  MOSUNNY   41  28  60 NW23G35   29.99S
SHELBYVILLE    CLOUDY    42  35  76 NW18      29.98F
6HR MIN TEMP:  40; 6HR MAX TEMP:  46; 6HR PCP:  0.08;

ZIONSVILLE +   RAIN      37  33  84 NW18G25   30.01S
6HR MIN TEMP:  37; 6HR MAX TEMP:  44; 6HR PCP:  0.10;


$$

INZ033-034-041-042-049-050-058-059-311900-
EAST CENTRAL INDIANA

CITY           SKY/WX    TMP DP  RH WIND       PRES   REMARKS
MUNCIE         CLOUDY    41  36  82 NW17G24   29.94F
6HR MIN TEMP:  40; 6HR MAX TEMP:  43; 6HR PCP:  0.11;


$$

INZ060-061-067>069-081>083-085>088-311900-
SOUTHWEST INDIANA

CITY           SKY/WX    TMP DP  RH WIND       PRES   REMARKS
EVANSVILLE     LGT RAIN  46  27  47 N17G26    30.11F
6HR MIN TEMP:  42; 6HR MAX TEMP:  49; 6HR PCP: TRACE;

HUNTINGBURG *+ CLOUDY    41  32  70 N17G28    30.08R
6HR MIN TEMP:  41; 6HR MAX TEMP:  46;


$$

INZ062-063-066-070>080-084-089>092-311900-
SOUTH CENTRAL AND SOUTHEAST INDIANA

CITY           SKY/WX    TMP DP  RH WIND       PRES   REMARKS
BLOOMINGTON    CLOUDY    41  34  76 NW10      30.04S
6HR MIN TEMP:  39; 6HR MAX TEMP:  44; 6HR PCP:  0.06;


$$





U.S. Dept. of Commerce
NOAA National Weather Service
1325 East West Highway
Silver Spring, MD 20910
E-mail: w-nws.webmaster@noaa.gov
Page last modified: May 16, 2007
NATIONAL WEATHER SERVICE: for Safety, for Work, for Fun - FOR LIFE